[Iaude] MPEC T96: 2016 TK18 [a=2.01,e=0.55,i=3.7,H=27.4]

mpec at si.edu mpec at si.edu
Sun Oct 9 10:27:33 EDT 2016


M.P.E.C. 2016-T96                                Issued 2016 Oct.  9, 14:22 UT
 
     The Minor Planet Electronic Circulars contain information on unusual
         minor planets and routine data on comets.  They are published
    on behalf of Division F of the International Astronomical Union by the
          Minor Planet Center, Smithsonian Astrophysical Observatory,
                          Cambridge, MA 02138, U.S.A.

             Prepared using the Tamkin Foundation Computer Network

                              MPC at CFA.HARVARD.EDU
            URL http://www.minorplanetcenter.net/    ISSN 1523-6714


                                   2016 TK18
 
Observations:
     K16T18K* C2016 10 06.46164 00 41 14.824+11 24 53.20         20.8 wLET096F51
     K16T18K  C2016 10 06.47464 00 41 26.425+11 25 22.13         20.8 wLET096F51
     K16T18K  C2016 10 06.48762 00 41 38.112+11 25 50.98         20.6 wLET096F51
     K16T18K  C2016 10 06.50067 00 41 49.937+11 26 19.73         20.9 wLET096F51
     K16T18K _C2016 10 07.45218801 00 44.507+12 07 58.94         19.8 RUET096568
     K16T18K _C2016 10 07.45322301 00 45.835+12 08 01.87         20.3 RUET096568
     K16T18K _C2016 10 07.45427301 00 47.206+12 08 04.92         20.0 RUET096568
     K16T18K  C2016 10 09.22677 02 02 48.48 +13 45 43.5          19.3 RoET096926
     K16T18K  C2016 10 09.22902 02 02 55.01 +13 45 52.1          19.2 RoET096926
     K16T18K  C2016 10 09.23129 02 03 01.62 +13 46 00.6          19.4 RoET096926
     K16T18K "C2016 10 09.30336102 06 31.42 +13 50 15.4          20.0 RtET096705
     K16T18K "C2016 10 09.30438102 06 34.43 +13 50 18.7          19.7 RtET096705
 
Observer details:
568 Mauna Kea.  Observers R. J. Wainscoat, L. Wells.  Measurers M. Micheli,
    R. J. Wainscoat.  3.6-m Canada-France-Hawaii Telescope + CCD.
705 Apache Point.  Observers K. Nault, M. Hammergren, M. Brucker.  Measurer
    K. Nault.  3.5-m f/10 reflector + CCD.
926 Tenagra II Observatory.  Observers M. Schwartz, P. R. Holvorcem.  Measurer
    M. Schwartz.  0.81-m f/7 Ritchey-Chretien + CCD.
F51 Pan-STARRS 1, Haleakala.  Observers B. Gibson, T. Goggia, S. Kahale,
    A. Schultz, M. Willman.  Measurers K. Chambers, S. Chastel, L. Denneau,
    H. Flewelling, M. Huber, E. Lilly, E. Magnier, R. Wainscoat, C. Waters,
    R. Weryk.  1.8-m Ritchey-Chretien + CCD.
 
Orbital elements:
2016 TK18                                                Earth MOID = 0.0040 AU
Epoch 2016 July 31.0 TT = JDT 2457600.5                 MPC
M 323.26210              (2000.0)            P               Q
n   0.34639080     Peri.  226.79754     +0.44419547     -0.89573718
a   2.0079758      Node   196.85836     +0.83946037     +0.42335554
e   0.5504559      Incl.    3.67366     +0.31304420     +0.13573867
P   2.85           H   27.4           G   0.15           U   6
Residuals in seconds of arc
161006 F51  0.1+  0.0     161007 568  0.0   0.0     161009 926  0.1-  0.1+
161006 F51  0.1-  0.1-    161007 568  0.1-  0.1-    161009 926  0.0   0.0
161006 F51  0.1+  0.0     161007 568  0.1+  0.0     161009 705  0.2+  0.1+
161006 F51  0.1-  0.1+    161009 926  0.1+  0.0     161009 705  0.2-  0.1-

Ephemeris:
2016 TK18                a,e,i = 2.01, 0.55, 4                   q = 0.9027
Date    TT    R. A. (2000) Decl.     Delta      r     Elong.  Phase     V
2016 09 09    23 28 15.9 +06 59 37   0.2282  1.2305   166.9    10.7    25.3
...
2016 09 24    23 38 36.3 +08 18 34   0.1169  1.1184   169.9     9.1    23.6
...
2016 10 02    00 00 12.2 +09 35 40   0.06358 1.0635   169.9     9.5    22.2
...
2016 10 08    01 15 07.6 +12 36 49   0.02694 1.0258   171.6     8.2    20.2
2016 10 09    01 51 40.0 +13 34 52   0.02172 1.0198   165.0    14.7    19.9
2016 10 10    02 49 08.4 +14 24 39   0.01735 1.0140   152.6    26.9    19.8
...
2016 10 16    09 26 01.2 -00 41 41   0.03173 0.9813    59.9   118.5    24.6
...
2016 10 24    10 32 16.1 -04 49 43   0.08104 0.9451    50.5   125.7    27.1
...
2016 11 08    11 04 13.1 -06 39 18   0.1775  0.9058    56.8   113.8    27.8

A. U. Tomatic                (C) Copyright 2016 MPC           M.P.E.C. 2016-T96




More information about the Iaude mailing list